Location: Grust
(42.8833°N, 0.0333°W)
Time: 20:15:22
(UTC+00:00)

CZ-4B R/B - Pass Details

Date: 25 October 2020
Orbit: 808 x 882 km, 99.1° (Epoch: 23 November)

Event Time Altitude Azimuth Distance (km) Brightness Sun altitude
Rises 17:34:09 0° 172° (S) 3,460 6.4 -6.6°
Reaches altitude 10° 17:36:33 10° 176° (S) 2,520 5.8 -7.1°
Maximum altitude 17:42:08 65° 258° (WSW) 951 3.8 -8.1°
Drops below altitude 10° 17:47:39 10° 340° (NNW) 2,497 5.8 -9.1°
Sets 17:50:02 0° 343° (NNW) 3,427 6.5 -9.5°
